Location: Malvern Link
(52.1333°N, 2.3000°W)
Time: 16:12:22
(UTC+00:00)

Cosmos 1634 Rocket - Pass Details

Date: 02 December 2021
Orbit: 959 x 993 km, 82.9° (Epoch: 23 January)

Event Time Altitude Azimuth Distance (km) Brightness Sun altitude
Rises 16:45:42 0° 145° (SE) 3,696 7.0 -6.8°
Reaches altitude 10° 16:48:39 10° 133° (SE) 2,754 6.2 -7.2°
Maximum altitude 16:53:35 25° 81° (E) 1,903 5.0 -7.9°
Drops below altitude 10° 16:58:33 10° 30° (NNE) 2,768 5.9 -8.5°
Sets 17:01:31 0° 18° (NNE) 3,720 6.6 -9.0°
